Location: Ostrava
(49.8330°N, 18.2830°E)
Time: 11:36:16
(UTC+02:00)

Tiros 2 - Visible Passes

Search period start: 21 April 2014 00:00
Search period end: 01 May 2014 00:00
Orbit: 288 x 293 km, 48.5° (Epoch: 20 April)

Date Brightness Start Highest point End Pass type
(mag) Time Alt. Az. Time Alt. Az. Time Alt. Az.
21 Apr 5.5 21:35:53 10° W 21:38:23 62° S 21:38:23 62° S visible
22 Apr 5.8 21:40:06 10° W 21:42:24 51° SSW 21:42:24 51° SSW visible
23 Apr 6.4 21:43:37 10° W 21:45:40 37° SW 21:45:40 37° SW visible
24 Apr 7.0 21:46:26 10° W 21:48:12 26° SW 21:48:12 26° SW visible
25 Apr 7.6 21:48:39 10° WSW 21:50:02 18° SW 21:50:02 18° SW visible
26 Apr 8.2 21:50:30 10° WSW 21:51:09 12° SW 21:51:09 12° SW visible
